Location: Crab Orchard
(37.7292°N, 88.8042°W)
Time: 15:15:19
(UTC+00:00)

Cosmos 2333 Rocket - Pass Details

Date: 08 December 2019
Orbit: 837 x 864 km, 70.8° (Epoch: 28 January)

Event Time Altitude Azimuth Distance (km) Brightness Sun altitude
Rises 22:55:28 0° 210° (SSW) 3,400 6.4 -4.2°
Reaches altitude 10° 22:57:56 10° 213° (SSW) 2,472 5.7 -4.7°
Maximum altitude 23:03:34 63° 295° (WNW) 953 2.7 -5.7°
Drops below altitude 10° 23:09:17 10° 16° (NNE) 2,504 4.3 -6.7°
Sets 23:11:47 0° 20° (NNE) 3,447 5.0 -7.2°
